Taganrog Yuzhny Airport

Jump to: basic info | weather | comments

Related pages: nearby airports | nearby navaids | notams | map

Basic information (top)

Codes: TGK URRT
Location: lon 47.200001, lat 38.849998, elev 118 ft / 36 m msl
Status: medium_airport

Weather (top)

Current conditions for Rostov-na-Donu Airport 40nm (73km) E (rec'd 2014/11/24 02:00Z):

URRR 240200Z 04005MPS P8000 NSC M03/M06 Q1030 04CLRD70 NOSIG

Airport forecast for Rostov-na-Donu Airport 40nm (73km) E (rec'd 2014/11/23 00:00Z):

TAF URRR 232300Z 2400/2424 05005G10MPS 9999 BKN010 
      TEMPO 2400/2407 2100 BR SCT007 
      BECMG 2407/2408 06007G12MPS 530005 
      TEMPO 2408/2415 08009G14MPS

Latest comments (top)

dgs: gsdg [read]

More... (top)

See also NOTAMs and nearby airports and navaids, or visit the Taganrog Yuzhny Airport page at the main OurAirports website..